| time (UTC) | temp F | wind direction | speed MPH | gust MPH | rain 1hr in | rain 24hr in | rain mn in | humidity % | barometer mb |
| 20260506160504 | 73 | 132 | 3.0 | 12.0 | 0.00 | 0.00 | 0.00 | 68 | 1011.4 |
| 20260506160005 | 74 | 214 | 3.0 | 13.0 | 0.00 | 0.00 | 0.00 | 67 | 1011.5 |
| 20260506155504 | 74 | 200 | 4.0 | 15.0 | 0.00 | 0.00 | 0.00 | 67 | 1011.7 |
| 20260506155004 | 74 | 162 | 2.0 | 15.0 | 0.00 | 0.00 | 0.00 | 67 | 1011.7 |
| 20260506154505 | 74 | 168 | 4.0 | 15.0 | 0.00 | 0.00 | 0.00 | 67 | 1011.6 |
| 20260506154007 | 74 | 244 | 2.0 | 10.0 | 0.00 | 0.00 | 0.00 | 68 | 1011.7 |
| 20260506153504 | 74 | 157 | 2.0 | 18.0 | 0.00 | 0.00 | 0.00 | 66 | 1011.6 |
| 20260506153004 | 74 | 190 | 6.0 | 18.0 | 0.00 | 0.00 | 0.00 | 64 | 1011.7 |
| 20260506152504 | 74 | 232 | 5.0 | 13.0 | 0.00 | 0.00 | 0.00 | 65 | 1011.6 |
| 20260506151504 | 74 | 203 | 2.0 | 10.0 | 0.00 | 0.00 | 0.00 | 66 | 1011.6 |
| 20260506151004 | 74 | 209 | 2.0 | 8.0 | 0.00 | 0.00 | 0.00 | 67 | 1011.7 |
| 20260506150005 | 73 | 196 | 3.0 | 13.0 | 0.00 | 0.00 | 0.00 | 67 | 1011.7 |
| 20260506145005 | 73 | 203 | 3.0 | 20.0 | 0.00 | 0.00 | 0.00 | 67 | 1011.8 |
| 20260506144504 | 73 | 208 | 4.0 | 20.0 | 0.00 | 0.00 | 0.00 | 66 | 1011.6 |
| 20260506144004 | 74 | 203 | 4.0 | 13.0 | 0.00 | 0.00 | 0.00 | 66 | 1011.6 |
| 20260506143503 | 74 | 237 | 5.0 | 13.0 | 0.00 | 0.00 | 0.00 | 66 | 1011.7 |
| 20260506143004 | 74 | 215 | 3.0 | 16.0 | 0.00 | 0.00 | 0.00 | 66 | 1011.8 |
| 20260506142504 | 74 | 214 | 3.0 | 16.0 | 0.00 | 0.00 | 0.00 | 67 | 1011.8 |
| 20260506142003 | 74 | 193 | 3.0 | 12.0 | 0.00 | 0.00 | 0.00 | 66 | 1011.8 |
| 20260506141504 | 74 | 184 | 2.0 | 12.0 | 0.00 | 0.00 | 0.00 | 67 | 1011.8 |
| 20260506141004 | 74 | 248 | 2.0 | 14.0 | 0.00 | 0.00 | 0.00 | 66 | 1011.8 |
| 20260506140503 | 74 | 202 | 3.0 | 14.0 | 0.00 | 0.00 | 0.00 | 66 | 1011.8 |
| 20260506140004 | 74 | 186 | 5.0 | 14.0 | 0.00 | 0.00 | 0.00 | 66 | 1011.7 |
| 20260506135504 | 73 | 187 | 3.0 | 18.0 | 0.00 | 0.00 | 0.00 | 67 | 1011.7 |
| 20260506135004 | 73 | 225 | 5.0 | 18.0 | 0.00 | 0.00 | 0.00 | 67 | 1011.7 |
| 20260506134504 | 73 | 203 | 7.0 | 18.0 | 0.00 | 0.00 | 0.00 | 66 | 1011.8 |
| 20260506134004 | 73 | 176 | 3.0 | 17.0 | 0.00 | 0.00 | 0.00 | 68 | 1011.9 |
| 20260506133504 | 73 | 227 | 6.0 | 17.0 | 0.00 | 0.00 | 0.00 | 68 | 1011.9 |
| 20260506133004 | 72 | 197 | 3.0 | 16.0 | 0.00 | 0.00 | 0.00 | 69 | 1012.0 |
| 20260506132504 | 72 | 189 | 3.0 | 12.0 | 0.00 | 0.00 | 0.00 | 69 | 1012.1 |
| 20260506132004 | 71 | 183 | 2.0 | 12.0 | 0.00 | 0.00 | 0.00 | 70 | 1012.0 |
| 20260506131504 | 71 | 162 | 4.0 | 16.0 | 0.00 | 0.00 | 0.00 | 70 | 1012.0 |
| 20260506131004 | 71 | 171 | 5.0 | 16.0 | 0.00 | 0.00 | 0.00 | 70 | 1012.0 |
| 20260506130004 | 70 | 278 | 2.0 | 9.0 | 0.00 | 0.00 | 0.00 | 72 | 1012.2 |
| 20260506125505 | 69 | 210 | 2.0 | 12.0 | 0.00 | 0.00 | 0.00 | 73 | 1012.3 |
| 20260506124005 | 68 | 216 | 1.0 | 8.0 | 0.00 | 0.00 | 0.00 | 74 | 1012.3 |
| 20260506123004 | 68 | 237 | 1.0 | 10.0 | 0.00 | 0.00 | 0.00 | 73 | 1012.4 |
| 20260506122504 | 69 | 187 | 2.0 | 10.0 | 0.00 | 0.00 | 0.00 | 73 | 1012.4 |
| 20260506122004 | 69 | 203 | 3.0 | 9.0 | 0.00 | 0.00 | 0.00 | 73 | 1012.3 |
| 20260506121504 | 69 | 212 | 3.0 | 9.0 | 0.00 | 0.00 | 0.00 | 72 | 1012.2 |
| 20260506121004 | 69 | 234 | 2.0 | 12.0 | 0.00 | 0.00 | 0.00 | 72 | 1012.1 |
| 20260506120004 | 68 | 144 | 1.0 | 8.0 | 0.00 | 0.00 | 0.00 | 74 | 1012.2 |
| 20260506115507 | 68 | 193 | 2.0 | 8.0 | 0.00 | 0.00 | 0.00 | 75 | 1012.2 |
| 20260506115004 | 67 | 195 | 2.0 | 8.0 | 0.00 | 0.00 | 0.00 | 76 | 1012.2 |
| 20260506114505 | 66 | 208 | 1.0 | 3.0 | 0.00 | 0.00 | 0.00 | 76 | 1012.1 |
| 20260506114005 | 66 | 225 | 2.0 | 7.0 | 0.00 | 0.00 | 0.00 | 76 | 1012.2 |
| 20260506113504 | 66 | 214 | 2.0 | 7.0 | 0.00 | 0.00 | 0.00 | 76 | 1012.2 |
| 20260506113004 | 66 | 228 | 2.0 | 7.0 | 0.00 | 0.00 | 0.00 | 76 | 1012.1 |
| 20260506112505 | 66 | 220 | 2.0 | 12.0 | 0.00 | 0.00 | 0.00 | 76 | 1012.1 |
| 20260506111503 | 66 | 196 | 3.0 | 9.0 | 0.00 | 0.00 | 0.00 | 76 | 1011.9 |
| 20260506110504 | 65 | 207 | 2.0 | 5.0 | 0.00 | 0.00 | 0.00 | 78 | 1012.2 |
| 20260506105503 | 64 | 223 | 1.0 | 5.0 | 0.00 | 0.00 | 0.00 | 79 | 1012.1 |
| 20260506105004 | 64 | 222 | 1.0 | 5.0 | 0.00 | 0.00 | 0.00 | 79 | 1012.1 |
| 20260506103504 | 64 | 210 | 1.0 | 7.0 | 0.00 | 0.00 | 0.00 | 79 | 1012.3 |
| 20260506103004 | 64 | 208 | 2.0 | 7.0 | 0.00 | 0.00 | 0.00 | 79 | 1012.4 |
| 20260506102505 | 64 | 250 | 1.0 | 6.0 | 0.00 | 0.00 | 0.00 | 79 | 1012.4 |
| 20260506102004 | 64 | 204 | 2.0 | 6.0 | 0.00 | 0.00 | 0.00 | 79 | 1012.3 |
| 20260506101504 | 64 | 213 | 1.0 | 7.0 | 0.00 | 0.00 | 0.00 | 78 | 1012.3 |
| 20260506101004 | 64 | 172 | 1.0 | 7.0 | 0.00 | 0.00 | 0.00 | 78 | 1012.3 |
| 20260506100004 | 64 | 220 | 1.0 | 9.0 | 0.00 | 0.00 | 0.00 | 78 | 1011.9 |
| 20260506095505 | 64 | 255 | 2.0 | 9.0 | 0.00 | 0.00 | 0.00 | 78 | 1012.0 |
| 20260506095004 | 64 | 217 | 1.0 | 8.0 | 0.00 | 0.00 | 0.00 | 78 | 1012.0 |
| 20260506094005 | 64 | 176 | 2.0 | 6.0 | 0.00 | 0.00 | 0.00 | 77 | 1012.1 |
| 20260506093504 | 64 | 209 | 2.0 | 6.0 | 0.00 | 0.00 | 0.00 | 77 | 1012.2 |
| 20260506093004 | 64 | 239 | 1.0 | 6.0 | 0.00 | 0.00 | 0.00 | 77 | 1012.2 |
| 20260506092504 | 64 | 225 | 2.0 | 6.0 | 0.00 | 0.00 | 0.00 | 77 | 1012.1 |
| 20260506091504 | 64 | 202 | 1.0 | 6.0 | 0.00 | 0.00 | 0.00 | 76 | 1012.1 |
| 20260506091004 | 64 | 254 | 2.0 | 7.0 | 0.00 | 0.00 | 0.00 | 76 | 1012.0 |
| 20260506090504 | 64 | 208 | 2.0 | 7.0 | 0.00 | 0.00 | 0.00 | 76 | 1012.0 |
| 20260506085505 | 64 | 185 | 1.0 | 7.0 | 0.00 | 0.00 | 0.00 | 76 | 1012.2 |
| 20260506085004 | 64 | 204 | 2.0 | 9.0 | 0.00 | 0.00 | 0.00 | 76 | 1012.3 |
| 20260506084005 | 64 | 214 | 2.0 | 10.0 | 0.00 | 0.00 | 0.00 | 76 | 1012.3 |
| 20260506083504 | 64 | 222 | 1.0 | 6.0 | 0.00 | 0.00 | 0.00 | 77 | 1012.2 |
| 20260506083005 | 64 | 231 | 1.0 | 12.0 | 0.00 | 0.00 | 0.00 | 77 | 1012.2 |
| 20260506082503 | 64 | 212 | 2.0 | 12.0 | 0.00 | 0.00 | 0.00 | 77 | 1012.3 |
| 20260506081504 | 64 | 171 | 2.0 | 8.0 | 0.00 | 0.00 | 0.00 | 77 | 1012.5 |
| 20260506081004 | 64 | 223 | 2.0 | 8.0 | 0.00 | 0.00 | 0.00 | 77 | 1012.4 |
| 20260506073005 | 65 | 215 | 2.0 | 9.0 | 0.00 | 0.00 | 0.00 | 79 | 1012.3 |
| 20260506072004 | 64 | 217 | 1.0 | 6.0 | 0.00 | 0.00 | 0.00 | 80 | 1012.2 |
| 20260506071504 | 64 | 224 | 2.0 | 6.0 | 0.00 | 0.00 | 0.00 | 80 | 1012.2 |
| 20260506071004 | 65 | 215 | 1.0 | 9.0 | 0.00 | 0.00 | 0.00 | 80 | 1012.2 |
| 20260506070504 | 65 | 192 | 2.0 | 9.0 | 0.00 | 0.00 | 0.00 | 80 | 1012.2 |
| 20260506062504 | 65 | 182 | 2.0 | 9.0 | 0.00 | 0.00 | 0.00 | 81 | 1012.4 |
| 20260506061504 | 65 | 229 | 1.0 | 8.0 | 0.00 | 0.00 | 0.00 | 81 | 1012.5 |
| 20260506060505 | 65 | 201 | 1.0 | 7.0 | 0.00 | 0.00 | 0.00 | 81 | 1012.7 |
| 20260506051004 | 65 | 210 | 1.0 | 6.0 | 0.00 | 0.00 | 0.00 | 81 | 1012.9 |
| 20260506050504 | 65 | 218 | 2.0 | 7.0 | 0.00 | 0.00 | 0.00 | 81 | 1012.9 |
| 20260506045004 | 65 | 218 | 1.0 | 9.0 | 0.00 | 0.00 | 0.00 | 81 | 1013.0 |
| 20260506044504 | 65 | 237 | 2.0 | 7.0 | 0.00 | 0.00 | 0.00 | 81 | 1013.1 |
| 20260506044004 | 65 | 226 | 1.0 | 5.0 | 0.00 | 0.00 | 0.00 | 81 | 1013.0 |
| 20260506043504 | 65 | 209 | 1.0 | 5.0 | 0.00 | 0.00 | 0.00 | 81 | 1013.1 |
| 20260506043004 | 65 | 195 | 2.0 | 5.0 | 0.00 | 0.00 | 0.00 | 81 | 1013.0 |
| 20260506042504 | 65 | 173 | 1.0 | 5.0 | 0.00 | 0.00 | 0.00 | 81 | 1013.0 |
| 20260506041504 | 65 | 175 | 1.0 | 6.0 | 0.00 | 0.00 | 0.00 | 80 | 1013.0 |
| 20260506041005 | 66 | 225 | 2.0 | 6.0 | 0.00 | 0.00 | 0.00 | 80 | 1013.0 |
| 20260506040504 | 66 | 232 | 1.0 | 7.0 | 0.00 | 0.00 | 0.00 | 80 | 1012.9 |
| 20260506035504 | 66 | 189 | 2.0 | 7.0 | 0.00 | 0.00 | 0.00 | 80 | 1013.0 |
| 20260506035004 | 66 | 200 | 1.0 | 6.0 | 0.00 | 0.00 | 0.00 | 79 | 1013.0 |
| 20260506034004 | 66 | 192 | 2.0 | 8.0 | 0.00 | 0.00 | 0.00 | 79 | 1013.0 |
| 20260506033504 | 66 | 218 | 1.0 | 6.0 | 0.00 | 0.00 | 0.00 | 79 | 1012.9 |
| 20260506033004 | 66 | 182 | 2.0 | 6.0 | 0.00 | 0.00 | 0.00 | 79 | 1013.0 |
| 20260506032003 | 67 | 222 | 2.0 | 5.0 | 0.00 | 0.00 | 0.00 | 78 | 1013.1 |
| 20260506031004 | 67 | 206 | 2.0 | 9.0 | 0.00 | 0.00 | 0.00 | 78 | 1013.0 |
| 20260506030504 | 67 | 217 | 1.0 | 9.0 | 0.00 | 0.00 | 0.00 | 78 | 1012.9 |
| 20260506030004 | 67 | 206 | 2.0 | 9.0 | 0.00 | 0.00 | 0.00 | 78 | 1013.0 |
| 20260506025504 | 67 | 202 | 2.0 | 10.0 | 0.00 | 0.00 | 0.00 | 78 | 1012.9 |
| 20260506025004 | 67 | 209 | 3.0 | 10.0 | 0.00 | 0.00 | 0.00 | 78 | 1013.0 |
| 20260506024504 | 67 | 226 | 2.0 | 9.0 | 0.00 | 0.00 | 0.00 | 78 | 1013.0 |
| 20260506024004 | 67 | 185 | 2.0 | 7.0 | 0.00 | 0.00 | 0.00 | 78 | 1013.0 |
| 20260506023004 | 67 | 200 | 1.0 | 13.0 | 0.00 | 0.00 | 0.00 | 77 | 1013.0 |
| 20260506022004 | 67 | 227 | 2.0 | 8.0 | 0.00 | 0.00 | 0.00 | 76 | 1013.0 |
| 20260506021505 | 67 | 209 | 2.0 | 8.0 | 0.00 | 0.00 | 0.00 | 76 | 1013.2 |
| 20260506020503 | 67 | 165 | 2.0 | 8.0 | 0.00 | 0.00 | 0.00 | 76 | 1013.0 |
| 20260506020004 | 67 | 208 | 2.0 | 9.0 | 0.00 | 0.00 | 0.00 | 76 | 1012.9 |
| 20260506015004 | 68 | 221 | 3.0 | 8.0 | 0.00 | 0.00 | 0.00 | 75 | 1012.8 |
| 20260506014004 | 68 | 219 | 2.0 | 7.0 | 0.00 | 0.00 | 0.00 | 75 | 1012.9 |
| 20260506013504 | 68 | 223 | 2.0 | 7.0 | 0.00 | 0.00 | 0.00 | 75 | 1012.7 |
| 20260506013004 | 68 | 210 | 2.0 | 8.0 | 0.00 | 0.00 | 0.00 | 75 | 1012.7 |
| 20260506012504 | 68 | 193 | 2.0 | 8.0 | 0.00 | 0.00 | 0.00 | 74 | 1012.5 |
| 20260506012004 | 68 | 193 | 2.0 | 7.0 | 0.00 | 0.00 | 0.00 | 74 | 1012.5 |
| 20260506011504 | 68 | 212 | 2.0 | 10.0 | 0.00 | 0.00 | 0.00 | 74 | 1012.3 |
| 20260506011004 | 68 | 219 | 3.0 | 10.0 | 0.00 | 0.00 | 0.00 | 74 | 1012.4 |
| 20260506010503 | 68 | 209 | 2.0 | 6.0 | 0.00 | 0.00 | 0.00 | 74 | 1012.2 |
| 20260506010003 | 69 | 200 | 2.0 | 14.0 | 0.00 | 0.00 | 0.00 | 74 | 1012.1 |
| 20260506005505 | 69 | 207 | 2.0 | 14.0 | 0.00 | 0.00 | 0.00 | 73 | 1012.2 |
| 20260506005004 | 69 | 224 | 3.0 | 8.0 | 0.00 | 0.00 | 0.00 | 73 | 1012.1 |
| 20260506004004 | 69 | 229 | 2.0 | 8.0 | 0.00 | 0.00 | 0.00 | 73 | 1011.8 |
| 20260506003504 | 69 | 212 | 2.0 | 8.0 | 0.00 | 0.00 | 0.00 | 72 | 1011.8 |
| 20260506003004 | 69 | 207 | 3.0 | 12.0 | 0.00 | 0.00 | 0.00 | 72 | 1011.8 |
| 20260506002503 | 69 | 211 | 3.0 | 12.0 | 0.00 | 0.00 | 0.00 | 72 | 1011.8 |
| 20260506002004 | 69 | 188 | 1.0 | 8.0 | 0.00 | 0.00 | 0.00 | 71 | 1011.6 |
| 20260506001504 | 69 | 202 | 2.0 | 8.0 | 0.00 | 0.00 | 0.00 | 71 | 1011.7 |
| 20260506001004 | 70 | 218 | 2.0 | 14.0 | 0.00 | 0.00 | 0.00 | 70 | 1011.8 |
| 20260506000504 | 70 | 216 | 3.0 | 14.0 | 0.00 | 0.00 | 0.00 | 69 | 1011.7 |
| 20260506000004 | 70 | 204 | 2.0 | 10.0 | 0.00 | 0.00 | 0.00 | 68 | 1011.6 |
| 20260505235504 | 70 | 208 | 2.0 | 10.0 | 0.00 | 0.00 | 0.00 | 67 | 1011.7 |
| 20260505235003 | 71 | 199 | 3.0 | 12.0 | 0.00 | 0.00 | 0.00 | 66 | 1011.7 |
| 20260505234504 | 71 | 204 | 3.0 | 12.0 | 0.00 | 0.00 | 0.00 | 66 | 1011.6 |
| 20260505234003 | 71 | 194 | 2.0 | 8.0 | 0.00 | 0.00 | 0.00 | 65 | 1011.5 |
| 20260505233004 | 72 | 217 | 2.0 | 10.0 | 0.00 | 0.00 | 0.00 | 63 | 1011.6 |
| 20260505232504 | 72 | 203 | 2.0 | 10.0 | 0.00 | 0.00 | 0.00 | 62 | 1011.5 |
| 20260505232004 | 72 | 181 | 1.0 | 12.0 | 0.00 | 0.00 | 0.00 | 61 | 1011.6 |
| 20260505231006 | 73 | 207 | 2.0 | 10.0 | 0.00 | 0.00 | 0.00 | 60 | 1011.7 |
| 20260505230504 | 73 | 199 | 3.0 | 7.0 | 0.00 | 0.00 | 0.00 | 59 | 1011.6 |
| 20260505230004 | 74 | 206 | 2.0 | 9.0 | 0.00 | 0.00 | 0.00 | 58 | 1011.5 |
| 20260505225004 | 74 | 221 | 2.0 | 9.0 | 0.00 | 0.00 | 0.00 | 57 | 1011.5 |
| 20260505224504 | 75 | 209 | 3.0 | 9.0 | 0.00 | 0.00 | 0.00 | 57 | 1011.5 |
| 20260505224004 | 75 | 190 | 2.0 | 10.0 | 0.00 | 0.00 | 0.00 | 56 | 1011.5 |
| 20260505223504 | 75 | 230 | 3.0 | 10.0 | 0.00 | 0.00 | 0.00 | 55 | 1011.4 |
| 20260505223004 | 76 | 220 | 2.0 | 9.0 | 0.00 | 0.00 | 0.00 | 55 | 1011.5 |
| 20260505222503 | 76 | 218 | 4.0 | 9.0 | 0.00 | 0.00 | 0.00 | 54 | 1011.5 |
| 20260505221503 | 77 | 225 | 2.0 | 9.0 | 0.00 | 0.00 | 0.00 | 54 | 1011.5 |
| 20260505221004 | 77 | 230 | 1.0 | 14.0 | 0.00 | 0.00 | 0.00 | 54 | 1011.4 |
| 20260505220504 | 78 | 210 | 5.0 | 14.0 | 0.00 | 0.00 | 0.00 | 53 | 1011.3 |
| 20260505220004 | 78 | 214 | 2.0 | 10.0 | 0.00 | 0.00 | 0.00 | 53 | 1011.4 |
| 20260505215504 | 79 | 178 | 4.0 | 10.0 | 0.00 | 0.00 | 0.00 | 52 | 1011.3 |
| 20260505214504 | 79 | 188 | 2.0 | 12.0 | 0.00 | 0.00 | 0.00 | 52 | 1011.2 |
| 20260505213504 | 80 | 185 | 3.0 | 12.0 | 0.00 | 0.00 | 0.00 | 51 | 1011.2 |
| 20260505213004 | 80 | 190 | 3.0 | 12.0 | 0.00 | 0.00 | 0.00 | 50 | 1011.2 |
| 20260505212504 | 80 | 205 | 2.0 | 8.0 | 0.00 | 0.00 | 0.00 | 50 | 1011.1 |
| 20260505212004 | 81 | 191 | 2.0 | 9.0 | 0.00 | 0.00 | 0.00 | 49 | 1011.0 |
| 20260505211504 | 81 | 200 | 3.0 | 13.0 | 0.00 | 0.00 | 0.00 | 48 | 1011.0 |
| 20260505211003 | 82 | 198 | 3.0 | 13.0 | 0.00 | 0.00 | 0.00 | 46 | 1011.2 |
| 20260505210004 | 82 | 229 | 2.0 | 13.0 | 0.00 | 0.00 | 0.00 | 40 | 1011.1 |
| 20260505205504 | 83 | 212 | 3.0 | 13.0 | 0.00 | 0.00 | 0.00 | 40 | 1011.2 |
| 20260505205004 | 83 | 208 | 2.0 | 14.0 | 0.00 | 0.00 | 0.00 | 40 | 1011.1 |
| 20260505204504 | 83 | 162 | 2.0 | 14.0 | 0.00 | 0.00 | 0.00 | 40 | 1011.2 |
| 20260505204004 | 83 | 221 | 2.0 | 15.0 | 0.00 | 0.00 | 0.00 | 40 | 1011.2 |
| 20260505203005 | 82 | 179 | 5.0 | 13.0 | 0.00 | 0.00 | 0.00 | 39 | 1011.1 |
| 20260505202505 | 82 | 215 | 3.0 | 12.0 | 0.00 | 0.00 | 0.00 | 40 | 1011.2 |
| 20260505202004 | 82 | 193 | 3.0 | 14.0 | 0.00 | 0.00 | 0.00 | 40 | 1011.3 |
| 20260505201504 | 83 | 200 | 4.0 | 16.0 | 0.00 | 0.00 | 0.00 | 41 | 1011.3 |
| 20260505201005 | 83 | 213 | 5.0 | 16.0 | 0.00 | 0.00 | 0.00 | 40 | 1011.4 |
| 20260505200504 | 83 | 191 | 6.0 | 15.0 | 0.00 | 0.00 | 0.00 | 40 | 1011.4 |
| 20260505200004 | 83 | 186 | 2.0 | 14.0 | 0.00 | 0.00 | 0.00 | 40 | 1011.6 |
| 20260505195504 | 83 | 214 | 2.0 | 14.0 | 0.00 | 0.00 | 0.00 | 40 | 1011.6 |
| 20260505195004 | 83 | 191 | 5.0 | 14.0 | 0.00 | 0.00 | 0.00 | 40 | 1011.6 |
| 20260505194504 | 83 | 254 | 4.0 | 13.0 | 0.00 | 0.00 | 0.00 | 40 | 1011.7 |
| 20260505194003 | 84 | 202 | 4.0 | 13.0 | 0.00 | 0.00 | 0.00 | 39 | 1011.7 |
| 20260505193505 | 84 | 197 | 2.0 | 13.0 | 0.00 | 0.00 | 0.00 | 39 | 1011.8 |
| 20260505192503 | 84 | 262 | 1.0 | 9.0 | 0.00 | 0.00 | 0.00 | 40 | 1011.8 |
| 20260505192004 | 84 | 226 | 2.0 | 9.0 | 0.00 | 0.00 | 0.00 | 40 | 1011.7 |
| 20260505191504 | 85 | 311 | 2.0 | 12.0 | 0.00 | 0.00 | 0.00 | 38 | 1011.7 |
| 20260505191004 | 85 | 187 | 2.0 | 13.0 | 0.00 | 0.00 | 0.00 | 39 | 1011.9 |
| 20260505190504 | 84 | 182 | 3.0 | 13.0 | 0.00 | 0.00 | 0.00 | 39 | 1011.9 |
| 20260505190004 | 85 | 184 | 2.0 | 10.0 | 0.00 | 0.00 | 0.00 | 37 | 1012.0 |
| 20260505185504 | 84 | 184 | 2.0 | 10.0 | 0.00 | 0.00 | 0.00 | 38 | 1012.1 |
| 20260505185004 | 84 | 158 | 3.0 | 8.0 | 0.00 | 0.00 | 0.00 | 39 | 1012.1 |
| 20260505184505 | 84 | 203 | 3.0 | 8.0 | 0.00 | 0.00 | 0.00 | 41 | 1012.1 |
| 20260505184004 | 83 | 282 | 2.0 | 8.0 | 0.00 | 0.00 | 0.00 | 42 | 1012.1 |
| 20260505183504 | 83 | 236 | 3.0 | 8.0 | 0.00 | 0.00 | 0.00 | 40 | 1012.2 |
| 20260505183004 | 84 | 205 | 4.0 | 9.0 | 0.00 | 0.00 | 0.00 | 39 | 1012.1 |
| 20260505182504 | 84 | 223 | 3.0 | 9.0 | 0.00 | 0.00 | 0.00 | 41 | 1012.0 |
| 20260505182004 | 83 | 223 | 2.0 | 8.0 | 0.00 | 0.00 | 0.00 | 42 | 1012.3 |
| 20260505181004 | 83 | 216 | 3.0 | 10.0 | 0.00 | 0.00 | 0.00 | 43 | 1012.3 |
| 20260505180504 | 83 | 171 | 3.0 | 7.0 | 0.00 | 0.00 | 0.00 | 42 | 1012.5 |
| 20260505180004 | 84 | 192 | 2.0 | 9.0 | 0.00 | 0.00 | 0.00 | 43 | 1012.4 |
| 20260505175503 | 83 | 200 | 3.0 | 9.0 | 0.00 | 0.00 | 0.00 | 43 | 1012.5 |
| 20260505175004 | 83 | 55 | 1.0 | 9.0 | 0.00 | 0.00 | 0.00 | 44 | 1012.7 |
| 20260505174004 | 83 | 175 | 4.0 | 9.0 | 0.00 | 0.00 | 0.00 | 44 | 1012.6 |
| 20260505173504 | 83 | 130 | 1.0 | 12.0 | 0.00 | 0.00 | 0.00 | 45 | 1012.6 |
| 20260505173004 | 82 | 149 | 2.0 | 12.0 | 0.00 | 0.00 | 0.00 | 45 | 1012.6 |
| 20260505172504 | 82 | 233 | 3.0 | 12.0 | 0.00 | 0.00 | 0.00 | 45 | 1012.7 |
| 20260505171505 | 82 | 148 | 2.0 | 9.0 | 0.00 | 0.00 | 0.00 | 45 | 1012.8 |
| 20260505171005 | 81 | 301 | 3.0 | 9.0 | 0.00 | 0.00 | 0.00 | 45 | 1012.7 |
| 20260505170504 | 82 | 229 | 2.0 | 7.0 | 0.00 | 0.00 | 0.00 | 46 | 1012.8 |
| 20260505170004 | 81 | 260 | 2.0 | 10.0 | 0.00 | 0.00 | 0.00 | 46 | 1012.8 |
| 20260505165004 | 81 | 178 | 3.0 | 12.0 | 0.00 | 0.00 | 0.00 | 48 | 1012.8 |
| 20260505164504 | 81 | 166 | 3.0 | 12.0 | 0.00 | 0.00 | 0.00 | 47 | 1012.8 |
| 20260505164005 | 81 | 168 | 3.0 | 10.0 | 0.00 | 0.00 | 0.00 | 47 | 1012.9 |
| 20260505163004 | 80 | 232 | 2.0 | 10.0 | 0.00 | 0.00 | 0.00 | 48 | 1013.0 |
| 20260505162504 | 80 | 78 | 3.0 | 12.0 | 0.00 | 0.00 | 0.00 | 48 | 1012.9 |
| 20260505162004 | 80 | 246 | 3.0 | 12.0 | 0.00 | 0.00 | 0.00 | 48 | 1013.0 |